When you browse on this site, cookies collect data to enhance your experience and personalize the content and advertising you see.
Visit our Privacy Policy to learn more. By continuing to use the site, you agree to this use of cookies and data.
  • en France
  • Liste des pays
  • À 7 jours
  • Température de l'eau
  • Carte météo
  • Widgets météo
  • user-avatar
    Se connecter

    Météo par heure à Burano

    Ce jour, 2 Juin, Mardi

    Heure Température Précipitation Vent Pression Humidité
    00:00 +18°C° 0 mm 2 m/s 762 mmHg 69%
    01:00 +18°C° 0 mm 2 m/s 762 mmHg 71%
    02:00 +17°C° 0 mm 2 m/s 762 mmHg 72%
    03:00 +17°C° 0 mm 2 m/s 762 mmHg 73%
    04:00 +18°C° 0 mm 1 m/s 761 mmHg 74%
    05:00 +19°C° 0 mm 1 m/s 761 mmHg 73%
    06:00 +20°C° 0 mm 1 m/s 761 mmHg 72%
    07:00 +20°C° 0 mm 1 m/s 761 mmHg 70%
    08:00 +22°C° 0 mm 1 m/s 761 mmHg 65%
    09:00 +23°C° 0 mm 1 m/s 761 mmHg 60%
    10:00 +24°C° 0 mm 1 m/s 761 mmHg 55%
    11:00 +25°C° 0 mm 2 m/s 760 mmHg 53%
    12:00 +26°C° 0 mm 2 m/s 760 mmHg 50%
    13:00 +26°C° 0 mm 3 m/s 759 mmHg 47%
    14:00 +26°C° 0 mm 3 m/s 759 mmHg 49%
    15:00 +26°C° 0 mm 4 m/s 758 mmHg 51%
    16:00 +26°C° 0 mm 4 m/s 758 mmHg 52%
    17:00 +25°C° 0.5 mm 4 m/s 758 mmHg 59%
    18:00 +22°C° 0.5 mm 4 m/s 758 mmHg 65%
    19:00 +21°C° 0.5 mm 4 m/s 758 mmHg 72%
    20:00 +20°C° 0.4 mm 3 m/s 758 mmHg 75%
    21:00 +19°C° 0.4 mm 3 m/s 758 mmHg 78%
    22:00 +18°C° 0.4 mm 2 m/s 759 mmHg 82%
    23:00 +18°C° 0.2 mm 2 m/s 759 mmHg 84%

    Demain, 3 Juin, Mercredi

    Heure Température Précipitation Vent Pression Humidité
    00:00 +17°C° 0.2 mm 3 m/s 759 mmHg 86%
    01:00 +17°C° 0.2 mm 3 m/s 758 mmHg 89%
    02:00 +17°C° 0 mm 3 m/s 758 mmHg 88%
    03:00 +16°C° 0 mm 3 m/s 758 mmHg 88%
    04:00 +16°C° 0 mm 3 m/s 758 mmHg 87%
    05:00 +17°C° 0.1 mm 3 m/s 758 mmHg 84%
    06:00 +18°C° 0.1 mm 3 m/s 757 mmHg 80%
    07:00 +19°C° 0.1 mm 2 m/s 757 mmHg 77%
    08:00 +20°C° 0.1 mm 2 m/s 757 mmHg 72%
    09:00 +21°C° 0.1 mm 2 m/s 757 mmHg 67%
    10:00 +23°C° 0.1 mm 2 m/s 757 mmHg 63%
    11:00 +23°C° 0 mm 2 m/s 756 mmHg 62%
    12:00 +24°C° 0 mm 3 m/s 756 mmHg 61%
    13:00 +24°C° 0 mm 3 m/s 755 mmHg 61%
    14:00 +24°C° 0.2 mm 3 m/s 755 mmHg 62%
    15:00 +23°C° 0.2 mm 4 m/s 754 mmHg 64%
    16:00 +23°C° 0.2 mm 4 m/s 754 mmHg 65%
    17:00 +22°C° 0.3 mm 4 m/s 754 mmHg 70%
    18:00 +21°C° 0.3 mm 3 m/s 754 mmHg 75%
    19:00 +21°C° 0.3 mm 3 m/s 754 mmHg 80%
    20:00 +20°C° 0.4 mm 3 m/s 754 mmHg 83%
    21:00 +20°C° 0.4 mm 3 m/s 754 mmHg 85%
    22:00 +19°C° 0.4 mm 3 m/s 754 mmHg 87%
    23:00 +19°C° 0.3 mm 3 m/s 754 mmHg 89%

    Après-demain, 4 Juin, Jeudi

    Heure Température Précipitation Vent Pression Humidité
    00:00 +18°C° 0.3 mm 3 m/s 754 mmHg 90%
    01:00 +18°C° 0.3 mm 3 m/s 753 mmHg 92%
    02:00 +17°C° 0.3 mm 3 m/s 753 mmHg 92%
    03:00 +17°C° 0.3 mm 3 m/s 752 mmHg 93%
    04:00 +17°C° 0.3 mm 3 m/s 752 mmHg 93%
    05:00 +17°C° 0.1 mm 3 m/s 752 mmHg 92%
    06:00 +18°C° 0.1 mm 3 m/s 752 mmHg 90%
    07:00 +18°C° 0.1 mm 3 m/s 751 mmHg 89%
    08:00 +18°C° 0.2 mm 3 m/s 751 mmHg 87%
    09:00 +19°C° 0.2 mm 4 m/s 751 mmHg 84%
    10:00 +20°C° 0.2 mm 5 m/s 751 mmHg 82%
    11:00 +19°C° 0.6 mm 5 m/s 751 mmHg 83%
    12:00 +19°C° 0.6 mm 6 m/s 751 mmHg 84%
    13:00 +19°C° 0.6 mm 6 m/s 750 mmHg 86%
    14:00 +19°C° 2.4 mm 6 m/s 750 mmHg 88%
    15:00 +17°C° 2.4 mm 5 m/s 750 mmHg 89%
    16:00 +18°C° 2.4 mm 4 m/s 749 mmHg 91%
    17:00 +17°C° 3 mm 5 m/s 749 mmHg 91%
    18:00 +17°C° 3 mm 6 m/s 748 mmHg 90%
    19:00 +17°C° 3 mm 7 m/s 748 mmHg 90%
    20:00 +17°C° 0.8 mm 6 m/s 747 mmHg 90%
    21:00 +17°C° 0.8 mm 6 m/s 747 mmHg 90%
    22:00 +17°C° 0.8 mm 5 m/s 746 mmHg 90%
    23:00 +17°C° 2.1 mm 5 m/s 746 mmHg 91%

    5 Juin, Vendredi

    Heure Température Précipitation Vent Pression Humidité
    00:00 +17°C° 2.1 mm 5 m/s 745 mmHg 92%
    01:00 +17°C° 2.1 mm 6 m/s 744 mmHg 93%
    02:00 +17°C° 1.6 mm 6 m/s 744 mmHg 92%
    03:00 +17°C° 1.6 mm 6 m/s 744 mmHg 91%
    04:00 +17°C° 1.6 mm 7 m/s 744 mmHg 90%
    05:00 +17°C° 0.3 mm 6 m/s 744 mmHg 86%
    06:00 +19°C° 0.3 mm 6 m/s 744 mmHg 82%
    07:00 +19°C° 0.3 mm 6 m/s 744 mmHg 78%
    08:00 +19°C° 1.3 mm 6 m/s 745 mmHg 81%
    09:00 +17°C° 1.3 mm 6 m/s 745 mmHg 83%
    10:00 +16°C° 1.3 mm 7 m/s 745 mmHg 86%
    11:00 +16°C° 1 mm 7 m/s 745 mmHg 87%
    12:00 +15°C° 1 mm 6 m/s 746 mmHg 88%
    13:00 +14°C° 1 mm 6 m/s 746 mmHg 90%
    14:00 +14°C° 0.6 mm 6 m/s 746 mmHg 88%
    15:00 +14°C° 0.6 mm 5 m/s 746 mmHg 87%
    16:00 +14°C° 0.6 mm 5 m/s 747 mmHg 85%
    17:00 +14°C° 0.1 mm 6 m/s 747 mmHg 84%
    18:00 +13°C° 0.1 mm 6 m/s 748 mmHg 82%
    19:00 +12°C° 0.1 mm 7 m/s 748 mmHg 81%
    20:00 +13°C° 0 mm 6 m/s 750 mmHg 81%
    21:00 +12°C° 0 mm 5 m/s 751 mmHg 82%
    22:00 +12°C° 0 mm 4 m/s 752 mmHg 83%
    23:00 +11°C° 0 mm 3 m/s 753 mmHg 84%

    6 Juin, Samedi

    Heure Température Précipitation Vent Pression Humidité
    00:00 +11°C° 0 mm 3 m/s 753 mmHg 85%
    01:00 +12°C° 0 mm 2 m/s 754 mmHg 86%
    02:00 +12°C° 0 mm 2 m/s 755 mmHg 86%
    03:00 +10°C° 0 mm 2 m/s 755 mmHg 86%
    04:00 +11°C° 0 mm 1 m/s 756 mmHg 86%
    05:00 +12°C° 0 mm 1 m/s 756 mmHg 82%
    06:00 +13°C° 0 mm 1 m/s 757 mmHg 78%
    07:00 +14°C° 0 mm 1 m/s 757 mmHg 74%
    08:00 +15°C° 0 mm 1 m/s 757 mmHg 70%
    09:00 +18°C° 0 mm 1 m/s 757 mmHg 67%
    10:00 +20°C° 0 mm 1 m/s 758 mmHg 63%
    11:00 +19°C° 0 mm 2 m/s 758 mmHg 63%
    12:00 +19°C° 0 mm 2 m/s 757 mmHg 64%
    13:00 +20°C° 0 mm 3 m/s 757 mmHg 65%
    14:00 +20°C° 0 mm 3 m/s 757 mmHg 63%
    15:00 +20°C° 0 mm 3 m/s 757 mmHg 62%
    16:00 +21°C° 0 mm 3 m/s 757 mmHg 61%
    17:00 +20°C° 0 mm 3 m/s 757 mmHg 65%
    18:00 +19°C° 0 mm 3 m/s 757 mmHg 68%
    19:00 +18°C° 0 mm 3 m/s 757 mmHg 71%
    20:00 +18°C° 0 mm 3 m/s 758 mmHg 71%
    21:00 +17°C° 0 mm 3 m/s 758 mmHg 71%
    22:00 +17°C° 0 mm 2 m/s 759 mmHg 70%
    23:00 +17°C° 0 mm 3 m/s 759 mmHg 72%

    7 Juin, Dimanche

    Heure Température Précipitation Vent Pression Humidité
    00:00 +16°C° 0 mm 3 m/s 759 mmHg 74%
    01:00 +16°C° 0 mm 3 m/s 759 mmHg 75%
    02:00 +16°C° 0 mm 3 m/s 758 mmHg 78%
    03:00 +14°C° 0 mm 3 m/s 758 mmHg 80%
    04:00 +14°C° 0 mm 3 m/s 758 mmHg 83%
    05:00 +16°C° 0 mm 3 m/s 758 mmHg 81%
    06:00 +16°C° 0 mm 3 m/s 758 mmHg 80%
    07:00 +17°C° 0 mm 3 m/s 758 mmHg 78%
    08:00 +18°C° 0 mm 3 m/s 758 mmHg 76%
    09:00 +19°C° 0 mm 3 m/s 758 mmHg 74%
    10:00 +20°C° 0 mm 3 m/s 758 mmHg 72%
    11:00 +21°C° 0 mm 4 m/s 758 mmHg 72%
    12:00 +21°C° 0 mm 4 m/s 757 mmHg 71%
    13:00 +21°C° 0 mm 4 m/s 757 mmHg 71%
    14:00 +21°C° 0.1 mm 4 m/s 757 mmHg 72%
    15:00 +21°C° 0.1 mm 4 m/s 757 mmHg 73%
    16:00 +21°C° 0.1 mm 4 m/s 757 mmHg 74%
    17:00 +20°C° 0.5 mm 4 m/s 757 mmHg 79%
    18:00 +20°C° 0.5 mm 4 m/s 757 mmHg 84%
    19:00 +19°C° 0.5 mm 4 m/s 757 mmHg 88%
    20:00 +19°C° 1 mm 4 m/s 757 mmHg 90%
    21:00 +18°C° 1 mm 4 m/s 758 mmHg 92%
    22:00 +18°C° 1 mm 3 m/s 758 mmHg 94%
    23:00 +18°C° 3.2 mm 3 m/s 758 mmHg 95%
    Voir plus